Back to catalog

HODOYOSHI 3

AliveScienceSSO
NORAD 40015·PAYLOAD·🇯🇵 Japan

Launched Jun 19, 2014 from Dombarovsky

Loading…

Next Passes (next 24 hours)

TLE

FreshSource: Space-Track

Epoch: Sep 14, 2026, 10:29 UTC

1 40015U 14033F   26257.43731376  .00000861  00000-0  10463-3 0  9999
2 40015  97.6528  56.9535 0034032  61.8979 298.5670 14.85557097660879

Track HODOYOSHI 3 in real time with AllMySat

Download on the App Store